User: anonymous   Login
Location: Unspecified
(0.0000°N, 0.0000°E)
Time: 12:29:28
(UTC+00:00)
Language:

SBIRS GEO 1 (USA 230) - Orbit

View from above orbital plane
View from above orbital plane
View from above satellite
View from above satellite

Ground track
Ground track

The orbit data is extracted from the following two-line orbital elements,

1 37481U 11019A   17348.46516286 0.00000000  00000-0  00000-0 0    09
2 37481   3.3482 323.6427 0004033 244.4752 115.4917  1.00270000    08
Epoch (UTC): 14 December 2017 11:09:50
Eccentricity: 0.0004033
inclination: 3.3482°
perigee height: 35770 km
apogee height: 35804 km
right ascension of ascending node: 323.6427°
argument of perigee: 244.4752°
revolutions per day: 1.00270000
mean anomaly at epoch: 115.4917°
orbit number at epoch: 0

The dashed part of the orbit path shows where the satellite is in the earth's shadow,  

DLR